DW2038 Weather Reports


Display with metric or nautical units.
time (UTC)temp
F
wind
direction
speed
MPH
gust
MPH
rain 1hr
in
rain 24hr
in
rain mn
in
humidity
%
barometer
mb
20210923171317 82 112 0.0 4.0 0.00 0.00 0.00 39 1016.5
20210923170806 82 70 0.0 4.0 0.00 0.00 0.00 44 1016.3
20210923170304 81 5 0.0 0.0 0.00 0.00 0.00 44 1016.5
20210923165754 81 28 0.0 0.0 0.00 0.00 0.00 44 1016.5
20210923165252 81 133 0.0 1.0 0.00 0.00 0.00 42 1016.5
20210923164755 81 55 0.0 0.0 0.00 0.00 0.00 42 1016.5
20210923164253 81 77 0.0 0.0 0.00 0.00 0.00 42 1016.8
20210923163752 81 66 0.0 0.0 0.00 0.00 0.00 43 1016.8
20210923163252 81 351 0.0 0.0 0.00 0.00 0.00 43 1016.8
20210923162750 81 5 0.0 0.0 0.00 0.00 0.00 43 1016.8
20210923162238 80 48 0.0 1.0 0.00 0.00 0.00 44 1016.9
20210923161723 80 162 0.0 1.0 0.00 0.00 0.00 45 1016.9
20210923161220 80 96 0.0 1.0 0.00 0.00 0.00 46 1016.8
20210923160713 79 78 0.0 1.0 0.00 0.00 0.00 47 1016.8
20210923160210 79 163 0.0 0.0 0.00 0.00 0.00 46 1016.9
20210923155712 79 172 0.0 5.0 0.00 0.00 0.00 46 1016.9
20210923155156 79 11 1.0 6.0 0.00 0.00 0.00 48 1016.9
20210923154653 79 163 1.0 6.0 0.00 0.00 0.00 50 1016.9
20210923154140 78 62 0.0 2.0 0.00 0.00 0.00 49 1016.9
20210923153631 78 152 0.0 2.0 0.00 0.00 0.00 52 1016.9
20210923153132 78 190 0.0 2.0 0.00 0.00 0.00 51 1016.8
20210923152629 78 134 0.0 2.0 0.00 0.00 0.00 51 1016.9
20210923152124 78 157 0.0 4.0 0.00 0.00 0.00 52 1016.7
20210923151625 78 88 0.0 4.0 0.00 0.00 0.00 52 1016.8
20210923151122 77 146 0.0 2.0 0.00 0.00 0.00 54 1016.8
20210923150610 77 159 0.0 2.0 0.00 0.00 0.00 55 1016.8
20210923150103 76 91 0.0 1.0 0.00 0.00 0.00 55 1016.8
20210923145600 76 99 0.0 0.0 0.00 0.00 0.00 56 1016.7
20210923145051 75 129 0.0 1.0 0.00 0.00 0.00 57 1016.7
20210923144541 75 51 0.0 1.0 0.00 0.00 0.00 56 1016.7
20210923144028 74 67 0.0 0.0 0.00 0.00 0.00 58 1016.7
20210923143517 73 61 0.0 0.0 0.00 0.00 0.00 59 1016.8
20210923143011 73 30 0.0 0.0 0.00 0.00 0.00 60 1016.7
20210923142512 72 56 0.0 0.0 0.00 0.00 0.00 60 1016.7
20210923142004 70 73 0.0 0.0 0.00 0.00 0.00 62 1016.7
20210923141453 69 67 0.0 0.0 0.00 0.00 0.00 63 1016.6
20210923140937 68 75 0.0 0.0 0.00 0.00 0.00 67 1016.6
20210923140428 67 75 0.0 0.0 0.00 0.00 0.00 68 1016.6
20210923135912 65 74 0.0 0.0 0.00 0.00 0.00 69 1016.6
20210923135403 64 84 0.0 0.0 0.00 0.00 0.00 72 1016.5
20210923134848 63 84 0.0 0.0 0.00 0.00 0.00 73 1016.5
20210923134336 62 86 0.0 0.0 0.00 0.00 0.00 74 1016.5
20210923133833 61 86 0.0 0.0 0.00 0.00 0.00 75 1016.3
20210923133320 61 86 0.0 0.0 0.00 0.00 0.00 75 1016.5
20210923132801 60 88 0.0 0.0 0.00 0.00 0.00 76 1016.6
20210923132254 60 88 0.0 0.0 0.00 0.00 0.00 77 1016.5
20210923131756 59 87 0.0 0.0 0.00 0.00 0.00 77 1016.3
20210923131252 59 87 0.0 0.0 0.00 0.00 0.00 78 1016.2
20210923130738 59 88 0.0 0.0 0.00 0.00 0.00 78 1016.3
20210923130226 59 88 0.0 0.0 0.00 0.00 0.00 78 1016.2
20210923125721 58 88 0.0 0.0 0.00 0.00 0.00 79 1016.2
20210923125201 58 88 0.0 0.0 0.00 0.00 0.00 79 1016.1
20210923124659 58 88 0.0 0.0 0.00 0.00 0.00 80 1016.3
20210923124156 58 88 0.0 0.0 0.00 0.00 0.00 79 1016.3
20210923123649 58 88 0.0 0.0 0.00 0.00 0.00 80 1016.2
20210923123112 58 88 0.0 0.0 0.00 0.00 0.00 80 1016.3
20210923122600 58 88 0.0 0.0 0.00 0.00 0.00 80 1016.2
20210923122048 58 88 0.0 0.0 0.00 0.00 0.00 79 1016.1
20210923121537 58 88 0.0 0.0 0.00 0.00 0.00 79 1016.0
20210923121032 58 88 0.0 0.0 0.00 0.00 0.00 79 1016.1
20210923120456 58 88 0.0 0.0 0.00 0.00 0.00 79 1016.1
20210923115945 58 88 0.0 0.0 0.00 0.00 0.00 79 1016.0
20210923115400 58 88 0.0 0.0 0.00 0.00 0.00 79 1016.0
20210923114857 58 88 0.0 0.0 0.00 0.00 0.00 79 1015.9
20210923114356 58 88 0.0 0.0 0.00 0.00 0.00 79 1016.0
20210923113831 58 88 0.0 0.0 0.00 0.00 0.00 79 1015.8
20210923113320 58 88 0.0 0.0 0.00 0.00 0.00 79 1015.9
20210923112801 58 88 0.0 0.0 0.00 0.00 0.00 78 1015.8
20210923112257 58 88 0.0 0.0 0.00 0.00 0.00 78 1015.8
20210923111738 58 88 0.0 0.0 0.00 0.00 0.00 78 1015.6
20210923111202 58 88 0.0 0.0 0.00 0.00 0.00 78 1015.5
20210923110657 58 88 0.0 0.0 0.00 0.00 0.00 78 1015.6
20210923110143 58 88 0.0 0.0 0.00 0.00 0.00 78 1015.6
20210923105635 58 88 0.0 0.0 0.00 0.00 0.00 78 1015.5
20210923105108 58 88 0.0 0.0 0.00 0.00 0.00 78 1015.6
20210923104602 58 88 0.0 0.0 0.00 0.00 0.00 78 1015.4
20210923104056 58 88 0.0 0.0 0.00 0.00 0.00 78 1015.5
20210923103539 58 88 0.0 0.0 0.00 0.00 0.00 77 1015.4
20210923103000 59 88 0.0 0.0 0.00 0.00 0.00 77 1015.4
20210923102416 58 88 0.0 0.0 0.00 0.00 0.00 77 1015.4
20210923101912 59 88 0.0 0.0 0.00 0.00 0.00 76 1015.4
20210923101405 59 88 0.0 0.0 0.00 0.00 0.00 76 1015.5
20210923100835 59 88 0.0 0.0 0.00 0.00 0.00 76 1015.5
20210923100304 59 88 0.0 0.0 0.00 0.00 0.00 75 1015.3
20210923095754 59 88 0.0 0.0 0.00 0.00 0.00 75 1015.6
20210923095242 59 88 0.0 0.0 0.00 0.00 0.00 74 1015.6
20210923094717 60 88 0.0 0.0 0.00 0.00 0.00 74 1015.4
20210923094147 60 88 0.0 0.0 0.00 0.00 0.00 74 1015.7
20210923093617 60 88 0.0 0.0 0.00 0.00 0.00 74 1015.8
20210923093108 60 87 0.0 0.0 0.00 0.00 0.00 74 1015.4
20210923092558 60 87 0.0 0.0 0.00 0.00 0.00 74 1015.7
20210923092051 60 87 0.0 0.0 0.00 0.00 0.00 73 1015.8
20210923091552 60 87 0.0 0.0 0.00 0.00 0.00 73 1015.5
20210923091036 61 88 0.0 0.0 0.00 0.00 0.00 73 1015.6
20210923090529 61 87 0.0 0.0 0.00 0.00 0.00 74 1015.7
20210923085958 61 87 0.0 0.0 0.00 0.00 0.00 74 1015.8
20210923085428 61 87 0.0 0.0 0.00 0.00 0.00 74 1015.8
20210923084919 61 87 0.0 0.0 0.00 0.00 0.00 74 1015.8
20210923084413 61 87 0.0 0.0 0.00 0.00 0.00 74 1015.8
20210923083904 61 88 0.0 0.0 0.00 0.00 0.00 74 1015.8
20210923083357 61 88 0.0 0.0 0.00 0.00 0.00 74 1015.8
20210923082848 61 88 0.0 0.0 0.00 0.00 0.00 74 1015.8
20210923082344 61 88 0.0 0.0 0.00 0.00 0.00 74 1015.9
20210923081832 61 88 0.0 0.0 0.00 0.00 0.00 74 1015.9
20210923081324 61 88 0.0 0.0 0.00 0.00 0.00 73 1015.9
20210923080815 61 88 0.0 0.0 0.00 0.00 0.00 73 1016.0
20210923080312 61 88 0.0 0.0 0.00 0.00 0.00 73 1016.1
20210923075800 61 88 0.0 0.0 0.00 0.00 0.00 73 1016.1
20210923075228 62 88 0.0 0.0 0.00 0.00 0.00 73 1016.0
20210923074657 62 88 0.0 0.0 0.00 0.00 0.00 73 1016.1
20210923074151 62 88 0.0 0.0 0.00 0.00 0.00 72 1016.0
20210923073620 62 88 0.0 0.0 0.00 0.00 0.00 72 1016.0
20210923073119 62 88 0.0 0.0 0.00 0.00 0.00 72 1016.0
20210923072607 62 88 0.0 0.0 0.00 0.00 0.00 73 1016.1
20210923072056 62 88 0.0 0.0 0.00 0.00 0.00 73 1016.1
20210923071549 62 88 0.0 0.0 0.00 0.00 0.00 72 1016.2
20210923071041 62 88 0.0 0.0 0.00 0.00 0.00 72 1016.1
20210923070536 62 88 0.0 0.0 0.00 0.00 0.00 72 1016.1
20210923070026 62 88 0.0 0.0 0.00 0.00 0.00 72 1016.1
20210923065516 63 88 0.0 0.0 0.00 0.00 0.00 73 1016.1
20210923065009 63 88 0.0 0.0 0.00 0.00 0.00 73 1016.2
20210923064457 63 88 0.0 0.0 0.00 0.00 0.00 73 1016.2
20210923063930 63 88 0.0 0.0 0.00 0.00 0.00 72 1016.2
20210923063422 63 88 0.0 0.0 0.00 0.00 0.00 72 1016.2
20210923062923 63 88 0.0 0.0 0.00 0.00 0.00 72 1016.3
20210923062401 64 88 0.0 0.0 0.00 0.00 0.00 72 1016.3
20210923061858 64 88 0.0 0.0 0.00 0.00 0.00 72 1016.1
20210923061328 64 88 0.0 0.0 0.00 0.00 0.00 71 1016.2
20210923060758 64 88 0.0 0.0 0.00 0.00 0.00 72 1016.2
20210923060249 64 88 0.0 0.0 0.00 0.00 0.00 73 1016.3
20210923055659 64 88 0.0 0.0 0.00 0.00 0.00 71 1016.2
20210923055152 64 88 0.0 0.0 0.00 0.00 0.00 70 1016.3
20210923054642 64 88 0.0 0.0 0.00 0.00 0.00 70 1016.3
20210923054113 64 88 0.0 0.0 0.00 0.00 0.00 70 1016.3
20210923053604 64 88 0.0 0.0 0.00 0.00 0.00 70 1016.3
20210923053056 65 88 0.0 0.0 0.00 0.00 0.00 69 1016.5
20210923052530 65 88 0.0 0.0 0.00 0.00 0.00 68 1016.6
20210923051956 65 88 0.0 0.0 0.00 0.00 0.00 67 1016.6
20210923051448 65 88 0.0 0.0 0.00 0.00 0.00 69 1016.5
20210923050924 65 88 0.0 0.0 0.00 0.00 0.00 68 1016.5
20210923050410 65 88 0.0 0.0 0.00 0.00 0.00 69 1016.5
20210923045903 65 88 0.0 0.0 0.00 0.00 0.00 62 1016.3
20210923045356 66 88 0.0 0.0 0.00 0.00 0.00 66 1016.3
20210923044846 66 88 0.0 0.0 0.00 0.00 0.00 63 1016.5
20210923044313 66 88 0.0 0.0 0.00 0.00 0.00 62 1016.5
20210923043804 66 88 0.0 0.0 0.00 0.00 0.00 60 1016.3
20210923043257 67 88 0.0 0.0 0.00 0.00 0.00 60 1016.5
20210923042752 67 88 0.0 1.0 0.00 0.00 0.00 58 1016.5
20210923042248 67 88 0.0 1.0 0.00 0.00 0.00 58 1016.6
20210923041737 67 23 0.0 0.0 0.00 0.00 0.00 59 1016.5
20210923041224 67 23 0.0 0.0 0.00 0.00 0.00 59 1016.3
20210923040658 68 23 0.0 0.0 0.00 0.00 0.00 57 1016.3
20210923040127 68 23 0.0 0.0 0.00 0.00 0.00 57 1016.2
20210923035619 68 23 0.0 0.0 0.00 0.00 0.00 56 1016.3
20210923035112 68 23 0.0 0.0 0.00 0.00 0.00 56 1016.2
20210923034559 68 23 0.0 0.0 0.00 0.00 0.00 56 1016.1
20210923034057 69 23 0.0 0.0 0.00 0.00 0.00 56 1016.3
20210923033519 69 23 0.0 0.0 0.00 0.00 0.00 55 1016.2
20210923033002 69 23 0.0 0.0 0.00 0.00 0.00 55 1016.2
20210923032453 70 23 0.0 0.0 0.00 0.00 0.00 55 1016.3
20210923031938 70 23 0.0 0.0 0.00 0.00 0.00 55 1016.3
20210923031430 70 23 0.0 0.0 0.00 0.00 0.00 54 1016.2
20210923030902 70 23 0.0 0.0 0.00 0.00 0.00 54 1016.1
20210923030307 70 23 0.0 0.0 0.00 0.00 0.00 53 1016.2
20210923025759 71 23 0.0 0.0 0.00 0.00 0.00 53 1016.2
20210923025252 71 23 0.0 0.0 0.00 0.00 0.00 53 1016.1
20210923024745 71 23 0.0 0.0 0.00 0.00 0.00 52 1016.0
20210923024154 71 23 0.0 0.0 0.00 0.00 0.00 52 1015.9
20210923023600 72 23 0.0 0.0 0.00 0.00 0.00 52 1016.0
20210923023014 72 23 0.0 0.0 0.00 0.00 0.00 52 1016.1
20210923022501 72 23 0.0 0.0 0.00 0.00 0.00 51 1016.1
20210923022000 72 23 0.0 0.0 0.00 0.00 0.00 52 1015.7
20210923021500 72 23 0.0 0.0 0.00 0.00 0.00 52 1015.9
20210923020941 72 23 0.0 0.0 0.00 0.00 0.00 51 1015.7
20210923020422 73 23 0.0 0.0 0.00 0.00 0.00 51 1015.8
20210923015917 73 23 0.0 0.0 0.00 0.00 0.00 51 1015.6
20210923015410 73 23 0.0 0.0 0.00 0.01 0.00 50 1015.6
20210923014840 73 23 0.0 0.0 0.00 0.01 0.00 50 1015.5
20210923014306 73 23 0.0 0.0 0.00 0.01 0.00 49 1015.5
20210923013758 74 23 0.0 0.0 0.00 0.01 0.00 49 1015.4
20210923013229 74 23 0.0 0.0 0.00 0.01 0.00 49 1015.3
20210923012723 74 23 0.0 0.0 0.00 0.01 0.00 49 1015.3
20210923012213 74 23 0.0 0.0 0.00 0.01 0.00 48 1015.2
20210923011700 75 23 0.0 0.0 0.00 0.01 0.00 48 1015.1
20210923011149 75 23 0.0 0.0 0.00 0.01 0.00 47 1015.1
20210923010611 75 23 0.0 0.0 0.00 0.01 0.00 46 1015.1
20210923010112 76 23 0.0 0.0 0.00 0.01 0.00 45 1014.9
20210923005602 76 23 0.0 0.0 0.00 0.01 0.00 44 1014.9
20210923005037 77 23 0.0 0.0 0.00 0.01 0.00 43 1015.0
20210923004527 77 23 0.0 0.0 0.00 0.01 0.00 43 1014.9
20210923004022 78 23 0.0 0.0 0.00 0.01 0.00 41 1014.9
20210923003510 78 23 0.0 0.0 0.00 0.01 0.00 41 1014.9
20210923002958 79 23 0.0 0.0 0.00 0.01 0.00 39 1014.8
20210923002451 79 22 0.0 0.0 0.00 0.01 0.00 39 1014.9
20210923001944 80 23 0.0 0.0 0.00 0.01 0.00 38 1014.9
20210923001408 80 21 0.0 0.0 0.00 0.01 0.00 37 1014.9
20210923000903 81 19 0.0 1.0 0.00 0.01 0.00 37 1014.9
20210923000356 81 16 0.0 1.0 0.00 0.01 0.00 36 1014.9
20210922235848 81 12 0.0 0.0 0.00 0.01 0.00 36 1014.9
20210922235344 82 33 0.0 0.0 0.00 0.01 0.00 36 1014.8
20210922234845 82 50 0.0 0.0 0.00 0.01 0.00 36 1014.8
20210922234310 82 71 0.0 0.0 0.00 0.01 0.00 36 1014.9
20210922233805 82 31 0.0 0.0 0.00 0.01 0.00 36 1014.7
20210922233305 82 13 0.0 0.0 0.00 0.01 0.00 35 1014.8
20210922232804 82 86 0.0 1.0 0.00 0.01 0.00 34 1014.7
20210922232301 82 5 0.0 1.0 0.00 0.01 0.00 34 1014.8
20210922231748 83 58 0.0 0.0 0.00 0.01 0.00 38 1014.7
20210922231250 83 32 0.0 0.0 0.00 0.01 0.00 36 1014.9
20210922230745 83 355 0.0 0.0 0.00 0.01 0.00 35 1014.8
20210922230238 83 350 0.0 0.0 0.00 0.01 0.00 35 1014.8
20210922225735 83 29 0.0 1.0 0.00 0.01 0.00 35 1014.9
20210922225235 83 20 0.0 1.0 0.00 0.01 0.00 34 1014.9
20210922224733 84 54 0.0 0.0 0.00 0.01 0.00 36 1014.9
20210922224227 84 51 0.0 0.0 0.00 0.01 0.00 35 1015.1
20210922223716 84 40 0.0 0.0 0.00 0.01 0.00 36 1015.1
20210922223203 84 17 0.0 0.0 0.00 0.01 0.00 33 1015.2
20210922222701 84 38 0.0 0.0 0.00 0.01 0.00 34 1015.2
20210922222159 84 38 0.0 1.0 0.00 0.01 0.00 34 1015.4
20210922221652 84 316 0.0 1.0 0.00 0.01 0.00 33 1015.4
20210922221142 84 27 0.0 4.0 0.00 0.01 0.00 35 1015.4
20210922220629 85 53 0.0 4.0 0.00 0.01 0.00 36 1015.5
20210922220118 84 345 0.0 2.0 0.00 0.01 0.00 35 1015.5
20210922215605 84 38 0.0 2.0 0.00 0.01 0.00 34 1015.4
20210922215055 84 5 0.0 6.0 0.00 0.01 0.00 34 1015.5
20210922214541 84 321 0.0 6.0 0.00 0.01 0.00 37 1015.4
20210922214029 84 5 0.0 1.0 0.00 0.01 0.00 35 1015.4
20210922213518 84 51 0.0 3.0 0.00 0.01 0.00 39 1015.5
20210922213006 84 0 1.0 7.0 0.00 0.01 0.00 36 1015.7
20210922212453 84 20 1.0 10.0 0.00 0.01 0.00 36 1015.7
20210922211947 84 13 0.0 10.0 0.00 0.01 0.00 35 1015.9
20210922211448 84 346 0.0 1.0 0.00 0.01 0.00 36 1016.0
20210922210941 83 27 0.0 0.0 0.00 0.01 0.00 36 1016.1
20210922210429 83 340 0.0 0.0 0.00 0.01 0.00 37 1016.3
20210922205917 83 344 0.0 8.0 0.00 0.01 0.00 38 1016.2
20210922205406 83 355 0.0 8.0 0.00 0.01 0.00 40 1016.2
20210922204852 83 70 0.0 0.0 0.00 0.01 0.00 42 1016.6
20210922204343 82 40 0.0 0.0 0.00 0.01 0.00 41 1016.5
20210922203830 82 45 0.0 1.0 0.00 0.01 0.00 39 1016.5
20210922203318 82 29 0.0 2.0 0.00 0.01 0.00 39 1016.7
20210922202805 82 36 0.0 2.0 0.00 0.01 0.00 38 1016.8
20210922202253 82 47 0.0 1.0 0.00 0.01 0.00 38 1017.0
20210922201742 82 337 0.0 3.0 0.00 0.01 0.00 38 1017.1
20210922201230 82 32 0.0 3.0 0.00 0.01 0.00 39 1017.2
20210922200717 82 15 0.0 2.0 0.00 0.01 0.00 40 1017.3
20210922200211 82 88 0.0 1.0 0.00 0.01 0.00 37 1017.3
20210922195711 83 0 0.0 1.0 0.00 0.01 0.00 40 1017.5
20210922195207 82 340 0.0 0.0 0.00 0.01 0.00 40 1017.4
20210922194652 82 10 0.0 0.0 0.00 0.01 0.00 38 1017.4
20210922194142 82 13 0.0 1.0 0.00 0.01 0.00 40 1017.7
20210922193630 82 57 0.0 4.0 0.00 0.01 0.00 41 1017.8
20210922193116 82 47 0.0 4.0 0.00 0.01 0.00 45 1017.8
20210922192605 82 321 0.0 1.0 0.00 0.01 0.00 41 1017.9
20210922192053 82 333 0.0 4.0 0.00 0.01 0.00 42 1018.0
20210922191542 82 30 0.0 6.0 0.00 0.01 0.00 39 1018.2
20210922191029 81 63 0.0 6.0 0.00 0.01 0.00 38 1018.3
20210922190527 81 31 0.0 12.0 0.00 0.01 0.00 41 1018.3
20210922190023 81 49 0.0 12.0 0.00 0.01 0.00 39 1018.5
20210922185523 82 38 0.0 1.0 0.00 0.01 0.00 43 1018.5
20210922185021 81 124 1.0 10.0 0.00 0.01 0.00 41 1018.7
20210922184522 81 17 1.0 10.0 0.00 0.01 0.00 40 1018.7
20210922184021 81 47 0.0 1.0 0.00 0.01 0.00 39 1018.8
20210922183521 81 340 0.0 1.0 0.00 0.01 0.00 42 1018.8
20210922183023 81 40 0.0 3.0 0.00 0.01 0.00 40 1018.9
20210922182517 81 57 0.0 3.0 0.00 0.01 0.00 40 1018.9
20210922182007 81 30 0.0 1.0 0.00 0.01 0.00 40 1019.1
20210922181454 81 17 0.0 1.0 0.00 0.01 0.00 43 1019.1
20210922180953 80 31 0.0 1.0 0.00 0.01 0.00 42 1019.2
20210922180444 80 30 0.0 5.0 0.00 0.01 0.00 39 1019.3
20210922175935 80 106 0.0 5.0 0.00 0.01 0.00 40 1019.3
20210922175428 80 94 0.0 9.0 0.00 0.01 0.00 42 1019.3
20210922174919 80 42 0.0 9.0 0.00 0.01 0.00 42 1019.4
20210922174411 80 15 0.0 1.0 0.00 0.01 0.00 40 1019.4
20210922173904 79 32 0.0 1.0 0.00 0.01 0.00 46 1019.5
20210922173356 79 55 0.0 1.0 0.00 0.01 0.00 43 1019.7
20210922172857 79 344 0.0 6.0 0.00 0.01 0.00 42 1019.8
20210922172356 79 311 0.0 6.0 0.00 0.01 0.00 45 1019.8
20210922171855 79 13 0.0 1.0 0.00 0.01 0.00 44 1020.0